This is the latest recevied weather packets stored in our database for station/object S55YIZ-7. If no packets are shown the sender has not sent any weather packets the latest 1 day(s).
| Time | Temp. | Humidity | Pressure | Rain* | Wind** | Luminosity | Snow |
|---|---|---|---|---|---|---|---|
| 1778086473 | 17.22° C | 100% | 1011.6 hPa | - | - | - | - |
| 1778085573 | 17.78° C | 100% | 1011.4 hPa | - | - | - | - |
| 1778083772 | 18.33° C | 100% | 1011.6 hPa | - | - | - | - |
| 1778081072 | 20° C | 100% | 1011.8 hPa | - | - | - | - |
| 1778079272 | 19.44° C | 100% | 1012.3 hPa | - | - | - | - |
| 1778078372 | 20° C | 100% | 1012.3 hPa | - | - | - | - |
| 1778077472 | 18.89° C | 100% | 1012.3 hPa | - | - | - | - |
| 1778076571 | 18.89° C | 100% | 1012.1 hPa | - | - | - | - |
| 1778075671 | 18.89° C | 100% | 1012.6 hPa | - | - | - | - |
| 1778071170 | 17.78° C | 100% | 1012.7 hPa | - | - | - | - |
| 1778069370 | 16.67° C | 100% | 1012.9 hPa | - | - | - | - |
| 1778068470 | 17.22° C | 100% | 1013 hPa | - | - | - | - |
| 1778067570 | 16.11° C | 100% | 1013.2 hPa | - | - | - | - |
| 1778063069 | 16.67° C | 100% | 1013.1 hPa | - | - | - | - |
| 1778061269 | 14.44° C | 100% | 1014.4 hPa | - | - | - | - |
| 1778060369 | 14.44° C | 100% | 1013.6 hPa | - | - | - | - |
| 1778059469 | 14.44° C | 100% | 1013.7 hPa | - | - | - | - |
| 1778058569 | 15° C | 100% | 1013.3 hPa | - | - | - | - |
| 1778057668 | 15° C | 100% | 1013.1 hPa | - | - | - | - |
| 1778056768 | 14.44° C | 100% | 1013.1 hPa | - | - | - | - |
| 1778054067 | 14.44° C | 100% | 1013.2 hPa | - | - | - | - |
| 1778052268 | 14.44° C | 100% | 1013.4 hPa | - | - | - | - |
| 1778051367 | 14.44° C | 100% | 1013.4 hPa | - | - | - | - |
| 1778050467 | 14.44° C | 100% | 1013.5 hPa | - | - | - | - |
| 1778049567 | 14.44° C | 100% | 1013.5 hPa | - | - | - | - |
* Rain since midnight (hover to see other rain measurements)
** Current wind speed in m/s (hover to see current wind gust speed)